FALCON 9 DEB (46175 NORAD) Tracking and Keplerian Element Data

This shows tracking and keplerian element data for the satellite.

Feedback or suggestion? Click here.




ElementValue
Catalog46175
NameFALCON 9 DEB
Epoch Orbit546
Epoch Day265.4657273
Epoch Year2020
RAAN264.6676
Inclination52.9739
Eccentricity0.0009586
Argument of Perigee187.1614
Mean Anonmoly172.9299
Mean Motion16.48457716
Decay Rate0.10966184
L11 46175U 20057BL 20265.46572730 .10966184 12442-4 14985-3 0 9998
L22 46175 52.9739 264.6676 0009586 187.1614 172.9299 16.48457716 5466

Live tracking and technical data element details for FALCON 9 DEB (NORAD 46175). FALCON 9 DEB can be tracked NOW for your location showing map with azimuth and elevation plus other details from your city location.

Track the satellite on the map from your city or location and see movement details for azimuth, elevation, latitude, longitude, range, height, and movement on the map or in text.







IsCatalogInMostPopularTable: catalog: 46175, numindb: 16
Update: records affected: 1



GetName: 46175 FALCON 9 DEB

Hit Count: updated at: Thu, 26 Nov 2020 23:47:37 GMT